Temperature
9 7 6 6 5 4 4 4 4 4 4 3 3 3 3 3 3 3 2 2 2 1 1 1 1 1 1 1 1 1 1 1 1 1 2 2 2 3 3 3 3 3 3
6 5 4 4 4 4 4 4 4 4 3 3 3 4 4 3 3 3 3 2 2 1 1 1 0 0 0 0 1 1 1 1 1 1 1 2 2 3 2 2 2 2 2
5 4 4 4 4 4 4 4 4 4 4 4 4 4 4 3 3 3 3 2 2 1 1 0 -0 -0 -0 -0 0 0 1 1 1 1 1 2 2 2 2 2 1 1 2
4 4 4 4 4 4 4 4 4 4 4 4 4 4 4 4 3 3 3 2 2 1 0 -0 -0 -0 -0 -1 -1 0 0 1 1 1 1 1 1 2 2 1 1 1 2
4 4 4 4 4 5 5 5 4 4 4 4 4 4 4 4 3 3 3 2 1 0 -0 -0 -0 -0 -1 -1 -1 -0 0 0 0 0 -0 0 0 1 1 1 1 2 2
4 4 4 4 5 5 5 5 5 4 4 4 4 4 3 3 3 2 1 1 -0 -0 -1 -0 -0 -1 -1 -1 -1 -0 -0 -0 -1 -1 -0 -0 1 1 1 1 1 2 2
5 5 5 5 5 5 5 5 5 5 5 4 3 3 2 2 1 1 -0 -1 -1 -1 -1 -1 -1 -1 -1 -0 -0 -1 -0 0 -0 -0 -0 0 1 2 2 2 1 2 2
5 5 5 5 5 6 5 5 5 4 4 3 2 1 1 1 0 -1 -1 -2 -2 -3 -3 -2 -2 -1 -1 -1 -0 -0 0 -0 -0 1 1 2 2 3 2 2 2 2 2
5 5 5 5 6 5 5 5 4 3 2 1 1 0 0 -0 -1 -2 -3 -3 -3 -3 -2 -2 -2 -1 -1 -1 -1 -0 -0 -0 0 1 2 2 3 3 2 2 2 2 2
5 5 5 5 5 5 4 3 3 2 1 -0 -1 -1 -1 -2 -2 -2 -3 -3 -2 -2 -1 -1 -1 -1 -1 -1 -1 -1 -1 -0 1 1 2 2 3 3 2 2 3 2 2
5 5 5 5 4 4 3 2 1 0 -1 -1 -1 -2 -2 -2 -2 -2 -2 -2 -2 -1 -1 -0 -0 -1 -1 -1 -1 -1 -1 -0 0 1 2 2 2 2 3 3 2 2 2
5 5 5 4 4 3 2 1 -0 -2 -2 -2 -2 -2 -2 -2 -2 -1 -1 -1 -1 -1 -1 -1 -1 -1 -1 -1 -1 -1 -0 0 0 1 1 2 2 2 2 2 2 1 1
5 5 4 3 3 2 1 -0 -1 -2 -2 -3 -2 -2 -2 -2 -2 -1 -1 -1 -1 -1 -1 -1 -1 -2 -2 -2 -1 -1 -0 0 0 1 1 1 1 2 2 1 0 0 -0
5 4 4 3 2 1 -0 -1 -2 -2 -2 -2 -2 -2 -3 -2 -2 -1 -1 -1 -1 -1 -1 -1 -1 -2 -2 -1 -1 -0 -0 -0 0 0 1 1 1 1 0 -0 -1 -0 -1
4 3 3 2 1 0 -1 -2 -2 -2 -3 -3 -3 -3 -3 -2 -2 -1 -1 -1 -1 -0 -0 -1 -2 -2 -2 -1 -1 -1 -1 -0 -0 0 0 -0 -0 -1 -1 -1 -1 -1 -1
4 3 2 2 0 -1 -2 -2 -2 -3 -3 -2 -3 -2 -2 -2 -1 -1 -1 -1 -0 -0 -0 -1 -1 -2 -2 -1 -1 -1 -1 -1 -1 -1 -1 -1 -1 -1 -1 -1 -1 -1 -1
3 3 2 1 -1 -2 -2 -2 -2 -2 -2 -2 -2 -2 -2 -1 -1 -1 -1 -1 -0 0 -0 -1 -1 -1 -1 -1 -1 -1 -1 -1 -2 -2 -2 -2 -2 -2 -1 -2 -1 -1 -1
3 2 1 -0 -1 -1 -2 -2 -1 -1 -1 -2 -2 -2 -2 -1 -1 -1 -0 -0 -0 -0 -0 -1 -1 -1 -1 -1 -1 -1 -1 -1 -2 -2 -2 -2 -2 -1 -1 -1 -1 -1 -0
2 2 0 -0 -1 -1 -1 -1 -1 -1 -1 -2 -2 -2 -1 -1 -1 -1 -1 -1 -1 -0 -0 -1 -1 -1 -1 -1 -1 -1 -1 -1 -1 -2 -2 -2 -1 -1 -1 -1 -1 -0 -0
2 1 0 -1 -1 -1 -2 -1 -1 -2 -2 -2 -2 -2 -1 -1 -1 -1 -1 -1 -1 -1 -0 -0 -0 -0 -1 -1 -1 -1 -1 -1 -1 -1 -1 -2 -1 -1 -1 -1 -1 -0 -0
1 1 -0 -1 -2 -2 -2 -2 -1 -2 -2 -2 -2 -2 -1 -1 -1 -1 -1 -1 -1 -1 -0 -0 -0 -0 -0 -1 -1 -1 -1 -1 -1 -1 -1 -1 -1 -1 -1 -1 -0 -0 -0
1 0 -0 -1 -1 -1 -1 -2 -2 -2 -2 -2 -2 -2 -2 -1 -2 -1 -1 -1 -1 -1 -0 -0 0 -0 -0 -1 -0 -1 -1 -1 -1 -1 -1 -1 -1 -1 -0 -0 -0 -0 -0
1 0 -0 -1 -1 -1 -1 -1 -2 -2 -2 -2 -2 -2 -2 -2 -2 -2 -1 -1 -1 -1 -1 -0 -0 0 -0 -0 -1 -1 -1 -1 -1 -1 -1 -0 -0 -0 -0 -0 -0 -0 -0
1 0 -0 -0 -1 -1 -1 -1 -1 -1 -2 -2 -2 -3 -3 -2 -2 -2 -1 -1 -1 -1 -1 -0 0 -0 -0 -0 -0 -1 -1 -1 -1 -1 -1 -0 -0 0 0 0 0 0 0
1 1 0 -0 -0 -0 -0 -1 -1 -1 -1 -1 -2 -3 -3 -3 -2 -2 -2 -1 -1 -1 -1 -0 -0 -0 -0 -0 -0 -1 -1 -1 -1 -1 -0 -0 -0 0 1 1 1 1 1
1 1 1 1 0 0 -0 -0 -1 -1 -1 -1 -2 -2 -2 -3 -2 -2 -2 -2 -1 -1 -0 -0 -0 -0 -0 -0 -0 -0 -1 -1 -1 -1 -0 0 0 1 1 1 1 1 1
Wind_Speed
5 3 2 1 1 2 4 5 5 4 5 5 6 6 6 8 9 7 8 8 8 8 8 9 12 12 10 10 8 7 8 8 9 8 10 10 10 10 8 10 11 10 10
3 1 1 2 1 2 5 6 5 5 6 7 6 6 7 9 10 9 10 9 8 9 10 11 13 12 12 11 9 9 8 8 8 9 10 9 10 9 8 8 7 8 7
2 3 3 2 1 3 6 7 6 6 7 8 8 8 9 8 8 9 9 8 7 8 10 12 14 14 13 12 11 10 9 8 8 8 10 8 7 6 8 8 7 6 5
2 4 4 4 4 5 6 7 6 6 8 10 10 9 8 6 7 7 5 4 6 8 11 13 14 14 14 14 12 11 9 8 8 9 10 10 10 10 8 8 6 4 3
3 5 5 5 6 7 7 6 6 7 10 9 8 7 7 5 4 2 1 3 7 10 13 13 13 16 19 15 11 10 8 8 7 9 10 10 10 9 8 5 6 3 3
6 6 4 6 7 8 8 7 7 9 8 6 5 4 6 3 4 6 5 4 8 10 12 13 13 16 16 17 17 15 14 12 10 11 12 12 13 10 7 7 3 3 3
5 6 5 6 8 9 8 7 6 7 7 7 6 6 5 3 5 8 11 7 8 10 12 12 12 12 14 12 14 16 17 18 18 15 14 15 14 11 8 6 5 3 2
5 6 6 6 6 5 5 6 6 5 6 4 5 7 7 7 10 12 15 9 9 11 12 12 11 13 13 13 11 13 13 13 16 15 14 15 14 10 7 4 5 5 4
6 6 6 5 4 6 6 6 6 5 5 5 5 6 7 9 12 14 14 10 10 12 12 12 12 12 14 16 13 13 12 12 13 16 14 13 17 11 9 8 7 6 3
5 4 4 5 7 7 6 5 5 5 5 7 7 6 8 9 12 15 16 9 10 10 11 11 15 15 17 17 12 10 11 11 10 8 6 8 9 10 9 7 7 5 3
2 5 6 7 7 6 5 5 5 6 7 8 7 7 7 9 12 17 18 11 8 9 9 9 10 16 17 15 11 9 10 10 6 3 4 7 8 8 8 7 6 4 3
6 7 6 6 6 5 5 5 6 7 8 9 8 8 7 8 11 16 19 16 14 9 9 8 9 15 16 14 11 11 10 4 3 5 5 7 8 8 8 9 9 8 6
7 7 5 6 6 5 5 5 5 5 7 8 8 9 9 9 10 16 17 17 18 12 9 14 15 15 12 10 12 11 5 5 6 7 7 8 8 8 9 9 10 11 12
7 6 6 6 6 6 5 5 5 6 7 8 9 8 9 9 9 11 11 11 14 12 12 13 15 12 11 11 10 8 6 8 8 8 8 8 8 8 7 7 8 9 9
7 7 5 6 7 6 6 4 4 4 4 7 7 6 8 9 12 15 13 11 10 12 11 8 8 8 9 9 8 8 9 9 9 9 8 8 8 8 8 7 8 8 7
7 5 5 6 6 6 6 6 5 4 5 9 11 9 8 10 16 17 17 17 16 16 8 9 9 10 9 9 8 8 8 9 8 8 8 8 8 8 8 7 8 8 8
7 6 5 6 5 5 6 6 7 9 9 10 12 13 13 14 16 18 18 16 13 11 8 9 9 8 8 9 8 8 7 8 8 8 8 8 8 7 7 8 9 8 9
8 7 6 5 5 6 6 6 7 7 8 8 9 11 13 16 16 17 17 12 11 10 10 10 9 9 8 8 8 7 7 8 8 8 8 8 8 7 8 9 8 9 9
7 5 5 5 6 6 6 6 7 7 7 7 9 10 12 14 14 14 14 10 9 10 10 9 9 9 8 7 7 8 8 8 7 7 8 9 8 8 8 8 8 10 10
7 7 7 6 6 6 7 8 7 7 7 8 8 9 10 10 10 11 11 11 10 11 10 10 9 9 8 7 7 7 8 7 8 9 9 8 6 6 7 8 9 9 9
5 6 6 5 5 5 5 7 7 7 7 7 7 11 14 10 9 10 10 10 11 11 10 10 9 9 8 7 6 6 7 7 8 8 7 5 4 5 5 6 8 8 9
5 5 4 5 6 7 7 8 8 8 8 8 8 10 14 10 9 10 11 11 10 10 9 9 8 8 7 7 6 5 6 6 6 5 5 5 4 4 5 6 7 8 8
5 5 5 5 6 7 8 8 8 8 8 8 8 9 10 10 10 10 11 11 11 10 11 10 9 9 9 9 8 6 5 5 5 7 6 5 5 4 5 6 7 8 8
4 4 5 5 5 6 8 8 8 9 9 9 9 9 9 9 10 11 11 11 10 10 12 12 11 12 12 11 10 9 8 8 9 8 5 6 6 6 7 7 8 9 8
4 3 3 3 4 5 7 8 8 8 8 8 8 9 9 9 9 10 10 9 9 10 12 15 15 15 16 15 13 10 10 11 11 8 6 5 7 7 7 8 8 8 8
4 4 4 3 4 5 5 6 7 8 8 8 8 8 9 9 9 10 10 10 10 10 13 15 18 19 18 17 16 12 9 9 9 9 8 5 5 6 7 7 8 7 8
Wind_Direction
161 179 113 55 284 274 270 273 274 297 302 280 260 258 274 277 270 262 264 271 277 292 301 304 303 304 299 289 268 255 249 249 266 279 278 280 275 269 273 276 285 284 288
172 196 236 289 357 301 275 271 277 287 289 281 277 270 277 280 274 262 269 278 285 292 299 305 303 303 294 288 277 272 263 255 258 276 284 279 267 262 264 268 268 272 264
214 253 272 303 303 271 276 288 294 290 286 285 279 269 269 276 278 272 268 274 282 292 298 300 298 294 285 283 279 277 272 264 261 274 286 290 284 280 271 262 255 243 218
249 282 290 281 267 268 277 282 284 276 268 270 265 266 279 297 297 291 289 285 295 302 301 296 290 284 279 275 276 278 282 278 281 285 290 291 289 284 271 267 261 198 187
261 259 260 270 274 273 273 288 304 284 267 271 287 297 306 309 315 332 332 312 308 307 304 299 294 292 290 284 283 284 285 284 287 288 285 283 280 280 264 253 250 164 168
247 248 264 284 291 295 303 310 305 298 299 303 304 321 325 344 43 11 339 313 306 305 306 303 300 300 297 296 297 300 297 292 285 280 281 279 277 270 249 239 197 148 181
257 277 291 299 297 295 308 320 321 328 1 19 17 15 5 333 334 326 323 313 301 302 299 296 301 302 299 290 291 299 296 285 278 280 274 269 271 266 238 222 178 161 135
284 297 305 304 306 331 3 13 19 28 32 23 13 7 353 330 317 321 330 318 303 299 295 292 293 295 291 290 295 293 287 278 275 272 264 262 257 259 222 192 144 113 95
307 316 324 338 3 34 40 35 31 21 15 359 355 354 348 336 332 334 331 317 307 301 299 298 294 294 294 295 295 292 288 286 284 286 282 269 246 213 156 129 130 135 116
324 336 18 52 66 62 51 44 31 22 7 358 350 339 338 334 330 326 322 316 308 308 306 304 304 302 301 303 302 295 291 295 306 323 347 51 78 106 116 121 134 125 112
351 85 80 74 77 72 60 49 33 20 7 351 337 325 336 336 328 321 323 327 314 308 307 306 304 304 307 310 307 295 283 288 303 6 25 64 70 74 78 79 81 89 102
84 85 79 74 68 60 58 48 36 24 9 351 341 337 341 330 328 330 333 330 327 319 308 306 309 315 319 322 318 307 298 291 84 74 62 68 70 70 72 74 75 73 74
88 84 77 60 46 39 37 21 9 5 3 354 348 344 341 336 339 338 335 334 338 336 322 328 329 326 337 340 335 345 19 65 82 83 79 75 73 76 81 84 82 79 74
92 81 58 39 25 20 10 360 353 353 0 360 350 343 339 336 339 342 341 340 342 337 331 332 338 350 2 357 355 12 53 76 80 84 83 82 75 77 77 77 84 92 92
92 75 51 36 30 19 9 359 359 11 22 13 355 342 336 335 335 338 343 346 347 341 337 341 0 10 12 10 19 47 62 71 77 76 82 84 78 79 74 70 90 94 79
95 75 54 41 32 24 12 3 359 1 357 13 2 350 339 331 335 342 345 345 347 346 349 354 7 16 18 15 30 59 65 74 77 77 77 76 83 85 79 79 83 70 70
96 81 59 43 26 13 13 6 355 360 11 5 356 347 345 346 346 349 348 344 351 356 0 356 4 14 20 23 29 56 68 75 76 74 77 81 89 81 77 88 83 68 71
87 77 63 43 27 23 16 4 360 358 355 355 353 345 343 348 351 352 351 354 7 9 3 359 4 10 25 30 27 38 54 74 78 75 78 78 83 69 73 79 85 87 80
88 75 63 52 39 26 17 9 5 1 0 0 1 357 348 351 357 1 2 10 9 7 2 1 359 1 15 27 23 33 50 72 82 85 84 80 78 73 77 79 86 81 84
89 80 70 57 43 33 23 15 10 10 8 10 10 3 354 2 9 6 5 7 9 9 5 2 1 2 9 19 29 41 54 60 60 80 90 91 71 69 67 77 88 91 92
96 78 68 55 35 20 13 14 10 12 12 12 10 6 4 12 6 3 4 6 6 5 5 4 3 3 5 12 26 38 54 61 69 84 93 84 70 76 77 83 88 95 99
102 86 64 43 30 26 22 21 18 17 16 14 11 5 4 12 10 6 5 6 5 4 4 5 6 5 2 2 7 24 54 69 79 79 75 77 71 79 91 89 97 101 99
104 88 70 57 49 38 30 28 26 24 18 12 10 7 7 9 8 6 2 1 3 4 6 8 9 8 7 8 9 20 46 62 79 81 66 65 75 100 109 109 110 106 103
109 92 81 69 53 40 36 32 29 27 25 19 14 12 8 6 4 3 1 359 0 3 7 9 9 7 10 14 14 20 35 44 61 81 83 69 66 90 108 111 109 104 98
107 97 87 64 48 48 47 41 36 32 28 22 17 15 10 5 3 360 359 359 359 2 4 7 8 8 13 19 20 26 50 58 54 69 60 53 64 76 103 111 112 112 110
93 84 73 69 67 59 51 43 39 35 30 23 19 17 16 13 8 3 1 3 2 3 4 6 6 8 13 16 16 32 62 76 70 50 32 30 53 75 100 116 115 114 114
Height
1530 1528 1523 1520 1519 1520 1523 1522 1519 1516 1514 1512 1509 1506 1504 1504 1502 1500 1495 1492 1489 1485 1481 1477 1473 1469 1464 1461 1458 1454 1450 1446 1440 1436 1435 1433 1431 1429 1427 1426 1423 1421 1419
1528 1526 1522 1521 1519 1521 1522 1520 1517 1515 1514 1511 1507 1504 1501 1500 1498 1495 1491 1488 1484 1480 1476 1471 1467 1463 1458 1454 1451 1448 1444 1441 1437 1432 1429 1427 1425 1423 1421 1419 1416 1413 1411
1525 1524 1521 1519 1518 1519 1520 1519 1517 1514 1512 1510 1506 1503 1499 1496 1494 1491 1486 1482 1478 1474 1470 1465 1460 1456 1450 1447 1444 1441 1438 1435 1432 1428 1424 1423 1420 1418 1415 1411 1408 1406 1406
1523 1523 1522 1521 1519 1518 1517 1515 1513 1513 1510 1507 1502 1500 1496 1491 1488 1485 1480 1476 1472 1468 1464 1459 1453 1447 1441 1438 1437 1434 1432 1429 1426 1423 1419 1417 1413 1411 1408 1404 1402 1402 1402
1523 1524 1522 1522 1518 1516 1514 1512 1511 1510 1506 1502 1498 1494 1491 1486 1482 1479 1474 1469 1465 1461 1456 1451 1444 1439 1435 1433 1431 1428 1426 1423 1420 1417 1414 1410 1407 1404 1402 1399 1398 1398 1398
1524 1523 1521 1521 1518 1515 1512 1509 1507 1505 1501 1496 1493 1488 1484 1480 1477 1473 1468 1462 1458 1453 1448 1443 1438 1433 1430 1428 1425 1422 1420 1417 1414 1411 1406 1403 1398 1397 1395 1395 1395 1395 1395
1524 1522 1519 1518 1515 1513 1510 1507 1502 1499 1495 1491 1488 1483 1479 1475 1472 1467 1461 1456 1450 1446 1440 1435 1429 1427 1424 1421 1419 1416 1414 1411 1408 1404 1398 1394 1392 1390 1390 1390 1391 1392 1392
1522 1519 1517 1514 1512 1510 1508 1504 1499 1496 1492 1488 1484 1479 1475 1471 1466 1460 1455 1450 1444 1438 1433 1428 1424 1421 1419 1416 1413 1409 1406 1403 1399 1394 1389 1386 1386 1385 1385 1387 1389 1390 1390
1520 1516 1514 1512 1509 1507 1505 1501 1497 1494 1490 1486 1480 1475 1471 1466 1460 1455 1449 1443 1438 1432 1427 1423 1420 1417 1414 1411 1407 1402 1398 1395 1392 1387 1383 1379 1379 1381 1383 1385 1387 1388 1388
1518 1515 1512 1510 1508 1506 1503 1499 1495 1491 1487 1482 1477 1473 1468 1463 1457 1450 1445 1440 1434 1429 1424 1421 1417 1413 1409 1405 1401 1396 1393 1390 1387 1384 1381 1378 1378 1380 1383 1385 1387 1388 1388
1515 1512 1511 1510 1508 1505 1502 1498 1494 1489 1485 1480 1476 1472 1468 1462 1456 1449 1443 1438 1433 1427 1422 1418 1413 1409 1405 1400 1396 1392 1388 1387 1386 1385 1382 1381 1381 1383 1385 1386 1388 1390 1390
1514 1512 1512 1510 1507 1504 1501 1496 1491 1487 1483 1479 1474 1471 1467 1461 1456 1449 1443 1438 1433 1427 1421 1416 1411 1406 1401 1396 1392 1389 1387 1386 1386 1385 1384 1384 1385 1386 1387 1389 1390 1391 1390
1514 1513 1512 1510 1507 1503 1498 1494 1490 1486 1482 1478 1475 1471 1466 1461 1456 1450 1445 1440 1435 1429 1423 1417 1411 1404 1398 1394 1391 1389 1388 1387 1387 1387 1387 1388 1389 1390 1392 1392 1392 1392 1393
1515 1513 1512 1510 1506 1500 1496 1492 1489 1486 1481 1478 1474 1471 1467 1462 1456 1450 1445 1441 1436 1430 1424 1418 1411 1404 1398 1395 1393 1391 1390 1390 1390 1390 1391 1392 1393 1394 1396 1397 1397 1398 1397
1516 1513 1512 1509 1503 1499 1495 1491 1489 1486 1482 1478 1474 1471 1467 1463 1458 1453 1448 1443 1438 1434 1427 1419 1413 1406 1401 1398 1396 1395 1394 1394 1394 1395 1395 1396 1397 1398 1400 1402 1403 1404 1404
1516 1515 1512 1507 1503 1499 1496 1494 1491 1487 1483 1479 1475 1472 1468 1465 1460 1455 1450 1446 1442 1437 1431 1424 1417 1412 1407 1404 1402 1401 1401 1400 1400 1400 1401 1402 1403 1404 1406 1407 1409 1410 1412
1517 1515 1512 1508 1504 1501 1499 1496 1493 1489 1484 1480 1476 1473 1470 1466 1461 1456 1452 1448 1443 1439 1433 1428 1423 1418 1414 1411 1409 1408 1407 1407 1406 1406 1406 1408 1409 1411 1412 1414 1416 1418 1420
1518 1515 1513 1510 1507 1504 1502 1498 1495 1490 1486 1482 1479 1475 1472 1467 1462 1458 1454 1449 1445 1441 1437 1433 1429 1425 1421 1418 1416 1415 1415 1414 1412 1412 1412 1414 1416 1417 1419 1420 1423 1425 1428
1519 1517 1515 1512 1510 1507 1504 1501 1497 1493 1488 1485 1481 1477 1474 1469 1465 1461 1456 1451 1447 1444 1441 1438 1434 1431 1428 1425 1423 1422 1421 1420 1419 1419 1420 1421 1423 1424 1426 1428 1431 1433 1435
1522 1519 1517 1514 1511 1509 1506 1503 1499 1495 1491 1487 1483 1480 1476 1472 1468 1464 1460 1456 1452 1448 1445 1442 1439 1437 1434 1432 1430 1428 1427 1427 1427 1427 1427 1428 1430 1431 1433 1436 1438 1440 1441
1524 1522 1519 1516 1514 1511 1509 1505 1502 1498 1494 1491 1488 1484 1480 1476 1472 1468 1464 1460 1456 1452 1449 1446 1443 1442 1440 1437 1436 1435 1434 1434 1434 1434 1434 1435 1437 1438 1440 1442 1444 1445 1446
1526 1524 1522 1520 1517 1515 1512 1508 1503 1500 1497 1494 1491 1488 1484 1480 1477 1473 1469 1464 1460 1457 1453 1450 1447 1446 1443 1441 1440 1441 1440 1440 1440 1440 1441 1442 1443 1444 1446 1446 1448 1451 1452
1529 1527 1525 1523 1521 1518 1514 1510 1506 1502 1499 1497 1494 1491 1487 1484 1481 1477 1473 1469 1466 1462 1458 1454 1452 1449 1447 1445 1445 1445 1445 1446 1446 1447 1448 1448 1448 1449 1450 1451 1453 1455 1457
1532 1530 1529 1527 1524 1521 1517 1514 1510 1507 1504 1500 1496 1493 1490 1488 1485 1481 1478 1474 1471 1467 1463 1459 1457 1455 1452 1450 1450 1450 1451 1451 1452 1452 1453 1454 1454 1455 1456 1457 1458 1460 1463
1535 1533 1532 1530 1527 1524 1521 1518 1515 1512 1508 1504 1500 1496 1494 1491 1489 1485 1482 1479 1476 1472 1468 1465 1463 1461 1458 1457 1456 1456 1456 1457 1457 1458 1459 1460 1460 1461 1462 1463 1464 1466 1469
1538 1536 1534 1532 1530 1528 1525 1522 1519 1516 1512 1509 1505 1501 1498 1495 1492 1489 1486 1484 1480 1477 1473 1470 1468 1466 1465 1464 1462 1461 1462 1462 1462 1463 1464 1465 1466 1467 1467 1468 1469 1471 1473